Temp
21 22 22 22 22 21 21 21 22 21 21 21 20 20 20 20 20 19 19 19 19 19
21 20 21 21 22 22 22 22 21 22 21 21 20 20 19 19 19 19 19 18 18 18
20 20 21 21 22 22 23 22 22 22 21 21 20 20 19 19 18 18 18 18 18 18
18 18 19 19 19 20 20 21 23 24 23 22 20 20 19 19 18 18 18 18 18 17
18 18 17 18 18 18 19 19 20 21 22 23 22 20 19 18 18 18 18 17 17 17
17 17 17 17 17 18 18 18 19 19 18 21 22 22 19 19 18 18 18 17 17 17
17 17 17 17 17 17 17 17 17 18 17 17 18 21 21 20 18 18 18 18 18 17
17 17 17 16 16 16 16 16 16 16 16 16 17 17 20 20 19 19 18 18 17 17
16 16 16 16 15 16 16 16 16 15 14 15 15 16 17 17 18 18 19 18 17 16
16 15 15 15 15 15 15 15 15 15 14 12 13 14 15 16 16 17 17 18 16 15
15 15 15 15 15 15 14 15 15 14 13 12 12 12 13 13 14 14 15 15 15 14
15 15 15 15 15 14 14 14 14 13 12 11 12 11 11 11 12 12 12 13 13 12
15 14 14 15 15 14 13 12 12 12 11 10 9 9 10 10 10 10 10 10 10 9
13 13 14 14 14 14 12 11 10 11 11 10 8 7 8 8 8 8 8 8 7 6
Height
723 724 725 728 732 737 739 742 747 749 750 754 758 763 767 769 770 772 773 775 776 778
720 718 724 728 731 729 732 734 740 742 743 745 750 755 758 760 762 764 765 765 768 769
720 722 721 723 724 728 729 729 733 735 738 738 741 746 750 750 752 756 757 757 761 761
718 719 720 720 721 723 724 726 725 726 729 732 735 737 739 740 743 744 749 750 751 753
720 720 720 720 718 717 718 720 722 722 723 726 726 728 730 733 736 738 739 741 743 741
718 718 719 720 720 720 718 718 716 717 719 718 720 722 724 725 727 730 730 733 732 732
720 721 723 722 722 720 719 717 714 714 713 714 717 719 720 719 719 721 722 722 723 726
722 726 721 720 720 720 719 716 715 713 711 710 711 712 712 712 713 713 713 715 717 720
722 721 721 719 718 717 716 713 711 710 709 706 706 706 707 708 706 707 706 707 710 713
722 720 721 720 720 719 716 713 711 709 705 703 702 702 702 701 701 701 702 703 705 706
721 720 719 719 719 717 715 712 709 708 706 703 700 699 698 698 699 698 698 698 699 701
719 717 716 715 715 713 711 708 707 706 705 703 700 698 696 696 695 695 695 694 695 695
711 710 710 709 709 708 706 703 703 703 702 702 700 697 695 694 692 690 691 691 692 693
702 703 703 702 701 700 700 699 699 698 698 698 698 696 693 691 689 689 688 688 690 692
Wind_Speed
28 33 34 35 34 32 33 36 39 43 43 45 43 44 41 42 44 41 42 41 41 37
29 22 22 26 34 31 36 35 38 43 45 44 44 44 42 42 40 41 41 43 41 40
6 1 19 33 33 39 37 37 40 40 41 43 44 45 44 40 39 38 39 39 36 38
19 15 12 8 7 20 25 33 36 36 39 40 42 44 43 42 38 41 41 39 38 39
17 16 16 15 12 10 8 12 20 28 34 34 37 40 41 38 36 37 40 38 38 39
20 19 18 18 17 14 14 15 13 16 24 30 33 36 39 41 37 39 38 38 35 37
19 18 15 16 17 17 16 16 17 19 18 19 28 31 34 36 37 40 40 37 38 37
19 18 17 18 16 16 16 16 16 19 21 18 16 24 29 31 33 34 34 32 33 37
20 22 21 21 18 18 19 19 19 19 18 19 18 16 20 24 26 29 31 30 32 35
19 20 22 21 16 16 16 18 20 22 22 20 19 20 21 21 26 29 29 30 33 33
20 21 23 26 24 18 14 13 18 20 21 22 22 20 21 20 22 29 32 32 34 35
22 23 24 26 26 23 17 14 14 16 19 21 22 20 19 19 22 26 29 31 32 33
31 30 28 26 24 24 20 16 13 14 16 18 21 18 18 18 19 23 27 25 25 25
31 35 34 32 28 25 20 15 14 13 15 18 17 19 18 16 18 23 23 20 19 19
Wind_Direction
203 204 206 209 210 215 216 218 226 229 223 227 227 229 229 231 236 230 229 228 228 229
214 230 239 232 230 225 224 224 225 229 228 227 229 230 228 228 230 232 231 232 230 230
113 25 250 243 243 239 238 234 231 232 233 237 233 232 229 228 230 231 232 232 231 231
58 57 55 62 256 251 246 242 240 245 243 240 233 233 229 231 228 227 231 231 229 230
47 39 37 27 8 359 337 269 259 255 240 250 246 239 233 230 230 225 229 230 229 231
35 29 18 8 2 352 335 318 304 286 264 249 253 251 241 238 232 230 231 231 230 233
22 10 6 4 356 350 344 325 317 312 305 285 266 262 261 252 238 235 239 241 238 233
1 352 348 342 344 347 349 345 323 308 307 309 291 267 265 263 255 250 244 248 245 245
359 350 341 340 322 330 336 342 342 331 316 300 307 300 281 271 267 261 248 246 249 244
339 343 339 337 319 308 320 329 335 335 330 314 298 297 291 287 285 273 255 250 248 239
320 318 320 317 314 294 291 305 320 326 325 319 309 309 298 295 286 265 264 253 249 240
298 297 301 303 305 294 282 287 303 316 320 320 312 307 306 297 286 268 258 249 245 240
295 289 285 285 289 290 278 274 282 303 316 316 310 308 300 299 286 266 255 247 240 231
295 286 280 280 277 279 274 256 269 290 307 311 313 310 303 300 282 265 246 239 227 219